Powrót do katalogu

STARLINK-5121

AktywnyŁącznośćVLEO
NORAD 53993·PAYLOAD·🇺🇸 United States

Wystrzelony Oct 5, 2022 z Vandenberg Space Force Base

Loading…

Następne Przeloty (najbliższe 24 godziny)

TLE

ŚwieżeSource: CelesTrak SupGP

Epoka: Sep 15, 2026, 02:01 UTC

1 53993C 22125AF  26258.08451389 -.00015269  00000+0 -95727-3 0  2587
2 53993  53.1585  78.0186 0001400  89.7044  78.2723 15.08852498    15

Śledź STARLINK-5121 w czasie rzeczywistym z AllMySat

Download on the App Store